Year,Month,Day,Hour,Minute,Value (Times are PST for temperature in C)
2008,11,01,00,00,10.40
2008,11,01,00,01,10.40
2008,11,01,00,02,10.40
2008,11,01,00,03,10.40
2008,11,01,00,04,10.50
2008,11,01,00,05,10.50
2008,11,01,00,06,10.50
2008,11,01,00,07,10.50
2008,11,01,00,08,10.60
2008,11,01,00,09,10.60
2008,11,01,00,10,10.60
2008,11,01,00,11,10.60
2008,11,01,00,12,10.60
2008,11,01,00,13,10.60
2008,11,01,00,14,10.60
2008,11,01,00,15,10.60
2008,11,01,00,16,10.70
2008,11,01,00,17,10.70
2008,11,01,00,18,10.70
2008,11,01,00,19,10.70
2008,11,01,00,20,10.80
2008,11,01,00,21,10.80
2008,11,01,00,22,10.80
2008,11,01,00,23,10.80
2008,11,01,00,24,10.80
2008,11,01,00,25,10.90
2008,11,01,00,26,10.90
2008,11,01,00,27,10.90
2008,11,01,00,28,10.90
2008,11,01,00,29,10.90
2008,11,01,00,30,10.90
2008,11,01,00,31,10.90
2008,11,01,00,32,11.00
2008,11,01,00,33,11.00
2008,11,01,00,34,11.00
2008,11,01,00,35,11.00
2008,11,01,00,36,11.00
2008,11,01,00,37,11.00
2008,11,01,00,38,11.10
2008,11,01,00,39,11.10
2008,11,01,00,40,11.10
2008,11,01,00,41,11.10
2008,11,01,00,42,11.10
2008,11,01,00,43,11.10
2008,11,01,00,44,11.10
2008,11,01,00,45,11.10
2008,11,01,00,46,11.10
2008,11,01,00,47,11.10
2008,11,01,00,48,11.10
2008,11,01,00,49,11.10
2008,11,01,00,50,11.10
2008,11,01,00,51,11.10
2008,11,01,00,52,11.10
2008,11,01,00,53,11.10
2008,11,01,00,54,11.10
2008,11,01,00,55,11.10
2008,11,01,00,56,11.10
2008,11,01,00,57,11.10
2008,11,01,00,58,11.10
2008,11,01,00,59,11.10
2008,11,01,01,00,11.10
2008,11,01,01,01,11.10
2008,11,01,01,02,11.10
2008,11,01,01,03,11.10
2008,11,01,01,04,11.20
2008,11,01,01,05,11.20
2008,11,01,01,06,11.20
2008,11,01,01,07,11.20
2008,11,01,01,08,11.20
2008,11,01,01,09,11.20
2008,11,01,01,10,11.20
2008,11,01,01,11,11.20
2008,11,01,01,12,11.20
2008,11,01,01,13,11.20
2008,11,01,01,14,11.30
2008,11,01,01,15,11.30
2008,11,01,01,16,11.30
2008,11,01,01,17,11.30
2008,11,01,01,18,11.30
2008,11,01,01,19,11.30
2008,11,01,01,20,11.30
2008,11,01,01,21,11.30
2008,11,01,01,22,11.30
2008,11,01,01,23,11.30
2008,11,01,01,24,11.30
2008,11,01,01,25,11.30
2008,11,01,01,26,11.30
2008,11,01,01,27,11.30
2008,11,01,01,28,11.30
2008,11,01,01,29,11.30
2008,11,01,01,30,11.30
2008,11,01,01,31,11.30
2008,11,01,01,32,11.30
2008,11,01,01,33,11.30
2008,11,01,01,34,11.40
2008,11,01,01,35,11.40
2008,11,01,01,36,11.40
2008,11,01,01,37,11.40
2008,11,01,01,38,11.40
2008,11,01,01,39,11.40
2008,11,01,01,40,11.40
2008,11,01,01,41,11.40
2008,11,01,01,42,11.40
2008,11,01,01,43,11.40
2008,11,01,01,44,11.40
2008,11,01,01,45,11.40
2008,11,01,01,46,11.40
2008,11,01,01,47,11.40
2008,11,01,01,48,11.40
2008,11,01,01,49,11.40
2008,11,01,01,50,11.40
2008,11,01,01,51,11.40
2008,11,01,01,52,11.40
2008,11,01,01,53,11.40
2008,11,01,01,54,11.40
2008,11,01,01,55,11.40
2008,11,01,01,56,11.30
2008,11,01,01,57,11.30
2008,11,01,01,58,11.30
2008,11,01,01,59,11.30
2008,11,01,02,00,11.30
2008,11,01,02,01,11.30
2008,11,01,02,02,11.30
2008,11,01,02,03,11.30
2008,11,01,02,04,11.30
2008,11,01,02,05,11.30
2008,11,01,02,06,11.30
2008,11,01,02,07,11.30
2008,11,01,02,08,11.30
2008,11,01,02,09,11.30
2008,11,01,02,10,11.30
2008,11,01,02,11,11.30
2008,11,01,02,12,11.30
2008,11,01,02,13,11.30
2008,11,01,02,14,11.30
2008,11,01,02,15,11.20
2008,11,01,02,16,11.20
2008,11,01,02,17,11.20
2008,11,01,02,18,11.20
2008,11,01,02,19,11.20
2008,11,01,02,20,11.20
2008,11,01,02,21,11.20
2008,11,01,02,22,11.20
2008,11,01,02,23,11.20
2008,11,01,02,24,11.20
2008,11,01,02,25,11.20
2008,11,01,02,26,11.20
2008,11,01,02,27,11.20
2008,11,01,02,28,11.20
2008,11,01,02,29,11.20
2008,11,01,02,30,11.20
2008,11,01,02,31,11.20
2008,11,01,02,32,11.20
2008,11,01,02,33,11.20
2008,11,01,02,34,11.20
2008,11,01,02,35,11.20
2008,11,01,02,36,11.20
2008,11,01,02,37,11.20
2008,11,01,02,38,11.20
2008,11,01,02,39,11.20
2008,11,01,02,40,11.20
2008,11,01,02,41,11.20
2008,11,01,02,42,11.20
2008,11,01,02,43,11.20
2008,11,01,02,44,11.20
2008,11,01,02,45,11.20
2008,11,01,02,46,11.20
2008,11,01,02,47,11.10
2008,11,01,02,48,11.20
2008,11,01,02,49,11.20
2008,11,01,02,50,11.10
2008,11,01,02,51,11.10
2008,11,01,02,52,11.10
2008,11,01,02,53,11.20
2008,11,01,02,54,11.10
2008,11,01,02,55,11.20
2008,11,01,02,56,11.20
2008,11,01,02,57,11.20
2008,11,01,02,58,11.20
2008,11,01,02,59,11.20
2008,11,01,03,00,11.20
2008,11,01,03,01,11.20
2008,11,01,03,02,11.20
2008,11,01,03,03,11.20
2008,11,01,03,04,11.20
2008,11,01,03,05,11.20
2008,11,01,03,06,11.20
2008,11,01,03,07,11.20
2008,11,01,03,08,11.20
2008,11,01,03,09,11.20
2008,11,01,03,10,11.30
2008,11,01,03,11,11.30
2008,11,01,03,12,11.30
2008,11,01,03,13,11.30
2008,11,01,03,14,11.30
2008,11,01,03,15,11.30
2008,11,01,03,16,11.30
2008,11,01,03,17,11.30
2008,11,01,03,18,11.30
2008,11,01,03,19,11.30
2008,11,01,03,20,11.30
2008,11,01,03,21,11.30
2008,11,01,03,22,11.30
2008,11,01,03,23,11.30
2008,11,01,03,24,11.30
2008,11,01,03,25,11.30
2008,11,01,03,26,11.30
2008,11,01,03,27,11.30
2008,11,01,03,28,11.30
2008,11,01,03,29,11.20
2008,11,01,03,30,11.20
2008,11,01,03,31,11.20
2008,11,01,03,32,11.20
2008,11,01,03,33,11.20
2008,11,01,03,34,11.10
2008,11,01,03,35,11.10
2008,11,01,03,36,11.10
2008,11,01,03,37,11.10
2008,11,01,03,38,11.10
2008,11,01,03,39,11.10
2008,11,01,03,40,11.10
2008,11,01,03,41,11.00
2008,11,01,03,42,11.00
2008,11,01,03,43,11.00
2008,11,01,03,44,11.00
2008,11,01,03,45,11.00
2008,11,01,03,46,11.00
2008,11,01,03,47,11.00
2008,11,01,03,48,11.00
2008,11,01,03,49,10.90
2008,11,01,03,50,10.90
2008,11,01,03,51,10.90
2008,11,01,03,52,10.90
2008,11,01,03,53,10.90
2008,11,01,03,54,10.90
2008,11,01,03,55,10.90
2008,11,01,03,56,10.90
2008,11,01,03,57,10.90
2008,11,01,03,58,10.90
2008,11,01,03,59,10.90
2008,11,01,04,00,10.90
2008,11,01,04,01,10.90
2008,11,01,04,02,11.00
2008,11,01,04,03,11.00
2008,11,01,04,04,11.00
2008,11,01,04,05,11.00
2008,11,01,04,06,11.00
2008,11,01,04,07,11.00
2008,11,01,04,08,11.00
2008,11,01,04,09,11.00
2008,11,01,04,10,11.00
2008,11,01,04,11,11.00
2008,11,01,04,12,11.00
2008,11,01,04,13,11.00
2008,11,01,04,14,11.00
2008,11,01,04,15,11.00
2008,11,01,04,16,11.00
2008,11,01,04,17,11.00
2008,11,01,04,18,11.00
2008,11,01,04,19,11.00
2008,11,01,04,20,11.00
2008,11,01,04,21,11.00
2008,11,01,04,22,11.00
2008,11,01,04,23,11.00
2008,11,01,04,24,10.90
2008,11,01,04,25,10.90
2008,11,01,04,26,10.90
2008,11,01,04,27,10.90
2008,11,01,04,28,10.90
2008,11,01,04,29,10.90
2008,11,01,04,30,10.90
2008,11,01,04,31,10.90
2008,11,01,04,32,10.90
2008,11,01,04,33,10.80
2008,11,01,04,34,10.80
2008,11,01,04,35,10.80
2008,11,01,04,36,10.80
2008,11,01,04,37,10.80
2008,11,01,04,38,10.80
2008,11,01,04,39,10.80
2008,11,01,04,40,10.80
2008,11,01,04,41,10.80
2008,11,01,04,42,10.80
2008,11,01,04,43,10.80
2008,11,01,04,44,10.70
2008,11,01,04,45,10.70
2008,11,01,04,46,10.70
2008,11,01,04,47,10.70
2008,11,01,04,48,10.70
2008,11,01,04,49,10.70
2008,11,01,04,50,10.70
2008,11,01,04,51,10.70
2008,11,01,04,52,10.70
2008,11,01,04,53,10.70
2008,11,01,04,54,10.60
2008,11,01,04,55,10.60
2008,11,01,04,56,10.60
2008,11,01,04,57,10.60
2008,11,01,04,58,10.60
2008,11,01,04,59,10.70
2008,11,01,05,00,10.70
2008,11,01,05,01,10.70
2008,11,01,05,02,10.70
2008,11,01,05,03,10.70
2008,11,01,05,05,10.70
2008,11,01,05,30,10.60
2008,11,01,05,48,10.80
2008,11,01,06,04,11.00
2008,11,01,06,21,10.90
2008,11,01,06,30,10.90
2008,11,01,06,44,10.90
2008,11,01,06,51,10.90
2008,11,01,06,52,10.90
2008,11,01,06,53,10.90
2008,11,01,06,54,10.90
2008,11,01,06,55,10.90
2008,11,01,06,56,10.90
2008,11,01,06,57,10.90
2008,11,01,06,58,10.90
2008,11,01,06,59,10.90
2008,11,01,07,00,10.90
2008,11,01,07,01,10.90
2008,11,01,07,02,10.90
2008,11,01,07,03,10.90
2008,11,01,07,04,10.90
2008,11,01,07,05,10.90
2008,11,01,07,06,10.90
2008,11,01,07,07,10.90
2008,11,01,07,08,10.90
2008,11,01,07,09,10.90
2008,11,01,07,10,10.90
2008,11,01,07,11,10.90
2008,11,01,07,12,11.00
2008,11,01,07,13,11.00
2008,11,01,07,14,11.00
2008,11,01,07,15,11.00
2008,11,01,07,16,11.00
2008,11,01,07,17,11.00
2008,11,01,07,18,11.00
2008,11,01,07,19,11.00
2008,11,01,07,20,11.00
2008,11,01,07,21,11.00
2008,11,01,07,22,11.00
2008,11,01,07,23,11.00
2008,11,01,07,24,11.00
2008,11,01,07,25,11.00
2008,11,01,07,26,11.00
2008,11,01,07,27,10.90
2008,11,01,07,28,10.90
2008,11,01,07,29,10.90
2008,11,01,07,30,10.90
2008,11,01,07,31,10.90
2008,11,01,07,32,10.90
2008,11,01,07,33,10.90
2008,11,01,07,34,10.80
2008,11,01,07,35,10.80
2008,11,01,07,36,10.80
2008,11,01,07,37,10.80
2008,11,01,07,38,10.80
2008,11,01,07,39,10.80
2008,11,01,07,40,10.80
2008,11,01,07,41,10.80
2008,11,01,07,42,10.80
2008,11,01,07,43,10.80
2008,11,01,07,44,10.80
2008,11,01,07,45,10.80
2008,11,01,07,46,10.80
2008,11,01,07,47,10.80
2008,11,01,07,48,10.80
2008,11,01,07,49,10.80
2008,11,01,07,50,10.80
2008,11,01,07,51,10.80
2008,11,01,07,52,10.80
2008,11,01,07,53,10.80
2008,11,01,07,54,10.80
2008,11,01,07,55,10.80
2008,11,01,07,56,10.80
2008,11,01,07,57,10.80
2008,11,01,07,58,10.80
2008,11,01,07,59,10.80
2008,11,01,08,00,10.80
2008,11,01,08,01,10.80
2008,11,01,08,02,10.80
2008,11,01,08,03,10.90
2008,11,01,08,04,10.90
2008,11,01,08,05,10.90
2008,11,01,08,06,10.90
2008,11,01,08,07,10.90
2008,11,01,08,08,10.90
2008,11,01,08,09,10.90
2008,11,01,08,10,10.90
2008,11,01,08,11,10.90
2008,11,01,08,12,10.90
2008,11,01,08,13,10.90
2008,11,01,08,14,10.90
2008,11,01,08,15,11.00
2008,11,01,08,16,11.00
2008,11,01,08,17,11.00
2008,11,01,08,18,11.00
2008,11,01,08,19,11.00
2008,11,01,08,20,11.00
2008,11,01,08,21,11.00
2008,11,01,08,22,11.00
2008,11,01,08,23,11.00
2008,11,01,08,24,11.00
2008,11,01,08,25,11.10
2008,11,01,08,26,11.10
2008,11,01,08,27,11.10
2008,11,01,08,28,11.10
2008,11,01,08,29,11.10
2008,11,01,08,30,11.10
2008,11,01,08,31,11.10
2008,11,01,08,32,11.10
2008,11,01,08,33,11.10
2008,11,01,08,34,11.10
2008,11,01,08,35,11.10
2008,11,01,08,36,11.10
2008,11,01,08,37,11.10
2008,11,01,08,38,11.10
2008,11,01,08,39,11.10
2008,11,01,08,40,11.00
2008,11,01,08,41,11.00
2008,11,01,08,42,11.00
2008,11,01,08,43,11.00
2008,11,01,08,44,11.00
2008,11,01,08,45,11.00
2008,11,01,08,46,11.00
2008,11,01,08,47,11.00
2008,11,01,08,48,11.00
2008,11,01,08,49,11.10
2008,11,01,08,50,11.10
2008,11,01,08,51,11.10
2008,11,01,08,52,11.10
2008,11,01,08,53,11.10
2008,11,01,08,54,11.10
2008,11,01,08,55,11.10
2008,11,01,08,56,11.10
2008,11,01,08,57,11.20
2008,11,01,08,58,11.20
2008,11,01,08,59,11.20
2008,11,01,09,00,11.20
2008,11,01,09,01,11.20
2008,11,01,09,02,11.20
2008,11,01,09,03,11.20
2008,11,01,09,04,11.20
2008,11,01,09,05,11.20
2008,11,01,09,06,11.20
2008,11,01,09,07,11.30
2008,11,01,09,08,11.30
2008,11,01,09,09,11.30
2008,11,01,09,10,11.30
2008,11,01,09,11,11.40
2008,11,01,09,12,11.40
2008,11,01,09,13,11.40
2008,11,01,09,14,11.40
2008,11,01,09,15,11.50
2008,11,01,09,16,11.50
2008,11,01,09,17,11.50
2008,11,01,09,18,11.50
2008,11,01,09,19,11.50
2008,11,01,09,20,11.50
2008,11,01,09,21,11.50
2008,11,01,09,22,11.50
2008,11,01,09,23,11.50
2008,11,01,09,24,11.60
2008,11,01,09,25,11.60
2008,11,01,09,26,11.60
2008,11,01,09,27,11.60
2008,11,01,09,28,11.60
2008,11,01,09,29,11.60
2008,11,01,09,30,11.60
2008,11,01,09,31,11.60
2008,11,01,09,32,11.60
2008,11,01,09,33,11.60
2008,11,01,09,34,11.70
2008,11,01,09,35,11.70
2008,11,01,09,36,11.70
2008,11,01,09,37,11.70
2008,11,01,09,38,11.80
2008,11,01,09,39,11.80
2008,11,01,09,40,11.80
2008,11,01,09,41,11.80
2008,11,01,09,42,11.90
2008,11,01,09,43,11.90
2008,11,01,09,44,11.90
2008,11,01,09,45,11.90
2008,11,01,09,46,12.00
2008,11,01,09,47,12.00
2008,11,01,09,48,12.10
2008,11,01,09,49,12.10
2008,11,01,09,50,12.10
2008,11,01,09,51,12.20
2008,11,01,09,52,12.20
2008,11,01,09,53,12.20
2008,11,01,09,54,12.20
2008,11,01,09,55,12.30
2008,11,01,09,56,12.30
2008,11,01,09,57,12.30
2008,11,01,09,58,12.30
2008,11,01,09,59,12.30
2008,11,01,10,00,12.30
2008,11,01,10,01,12.30
2008,11,01,10,02,12.30
2008,11,01,10,03,12.20
2008,11,01,10,04,12.20
2008,11,01,10,05,12.20
2008,11,01,10,06,12.20
2008,11,01,10,07,12.20
2008,11,01,10,08,12.20
2008,11,01,10,09,12.20
2008,11,01,10,10,12.20
2008,11,01,10,11,12.20
2008,11,01,10,12,12.20
2008,11,01,10,13,12.20
2008,11,01,10,14,12.20
2008,11,01,10,15,12.20
2008,11,01,10,16,12.30
2008,11,01,10,17,12.30
2008,11,01,10,18,12.30
2008,11,01,10,19,12.30
2008,11,01,10,20,12.30
2008,11,01,10,21,12.40
2008,11,01,10,22,12.40
2008,11,01,10,23,12.40
2008,11,01,10,24,12.50
2008,11,01,10,25,12.50
2008,11,01,10,26,12.50
2008,11,01,10,27,12.60
2008,11,01,10,28,12.70
2008,11,01,10,29,12.70
2008,11,01,10,30,12.80
2008,11,01,10,31,12.80
2008,11,01,10,32,12.90
2008,11,01,10,33,12.90
2008,11,01,10,34,12.90
2008,11,01,10,35,12.90
2008,11,01,10,36,12.90
2008,11,01,10,37,12.90
2008,11,01,10,38,12.90
2008,11,01,10,39,12.90
2008,11,01,10,40,12.90
2008,11,01,10,41,12.80
2008,11,01,10,42,12.80
2008,11,01,10,43,12.80
2008,11,01,10,44,12.80
2008,11,01,10,45,12.80
2008,11,01,10,46,12.80
2008,11,01,10,47,12.80
2008,11,01,10,48,12.80
2008,11,01,10,49,12.80
2008,11,01,10,50,12.80
2008,11,01,10,51,12.80
2008,11,01,10,52,12.80
2008,11,01,10,53,12.80
2008,11,01,10,54,12.70
2008,11,01,10,55,12.70
2008,11,01,10,56,12.70
2008,11,01,10,57,12.70
2008,11,01,10,58,12.70
2008,11,01,10,59,12.70
2008,11,01,11,00,12.60
2008,11,01,11,01,12.60
2008,11,01,11,02,12.60
2008,11,01,11,03,12.60
2008,11,01,11,04,12.60
2008,11,01,11,05,12.60
2008,11,01,11,06,12.60
2008,11,01,11,07,12.60
2008,11,01,11,08,12.70
2008,11,01,11,09,12.70
2008,11,01,11,10,12.70
2008,11,01,11,11,12.70
2008,11,01,11,12,12.70
2008,11,01,11,13,12.80
2008,11,01,11,14,12.80
2008,11,01,11,15,12.90
2008,11,01,11,16,12.90
2008,11,01,11,17,13.00
2008,11,01,11,18,13.10
2008,11,01,11,19,13.10
2008,11,01,11,20,13.20
2008,11,01,11,21,13.20
2008,11,01,11,22,13.20
2008,11,01,11,23,13.30
2008,11,01,11,24,13.30
2008,11,01,11,25,13.30
2008,11,01,11,26,13.30
2008,11,01,11,27,13.30
2008,11,01,11,28,13.30
2008,11,01,11,29,13.30
2008,11,01,11,30,13.40
2008,11,01,11,31,13.40
2008,11,01,11,32,13.40
2008,11,01,11,33,13.40
2008,11,01,11,34,13.40
2008,11,01,11,35,13.40
2008,11,01,11,36,13.40
2008,11,01,11,37,13.40
2008,11,01,11,38,13.40
2008,11,01,11,39,13.40
2008,11,01,11,40,13.30
2008,11,01,11,41,13.30
2008,11,01,11,42,13.30
2008,11,01,11,43,13.20
2008,11,01,11,44,13.20
2008,11,01,11,45,13.10
2008,11,01,11,46,13.10
2008,11,01,11,47,13.10
2008,11,01,11,48,13.10
2008,11,01,11,49,13.10
2008,11,01,11,50,13.10
2008,11,01,11,51,13.10
2008,11,01,11,52,13.20
2008,11,01,11,53,13.10
2008,11,01,11,54,13.10
2008,11,01,11,55,13.10
2008,11,01,11,56,13.10
2008,11,01,11,57,13.10
2008,11,01,11,58,13.00
2008,11,01,11,59,13.00
2008,11,01,12,00,13.00
2008,11,01,12,01,13.00
2008,11,01,12,02,12.90
2008,11,01,12,03,12.90
2008,11,01,12,04,12.90
2008,11,01,12,05,12.80
2008,11,01,12,06,12.80
2008,11,01,12,07,12.80
2008,11,01,12,08,12.80
2008,11,01,12,09,12.80
2008,11,01,12,10,12.80
2008,11,01,12,11,12.80
2008,11,01,12,12,12.80
2008,11,01,12,13,12.70
2008,11,01,12,14,12.70
2008,11,01,12,15,12.70
2008,11,01,12,16,12.70
2008,11,01,12,17,12.70
2008,11,01,12,18,12.70
2008,11,01,12,19,12.70
2008,11,01,12,20,12.70
2008,11,01,12,21,12.70
2008,11,01,12,22,12.70
2008,11,01,12,23,12.70
2008,11,01,12,24,12.70
2008,11,01,12,25,12.70
2008,11,01,12,26,12.70
2008,11,01,12,27,12.70
2008,11,01,12,28,12.70
2008,11,01,12,29,12.70
2008,11,01,12,30,12.70
2008,11,01,12,31,12.70
2008,11,01,12,32,12.70
2008,11,01,12,33,12.70
2008,11,01,12,34,12.70
2008,11,01,12,35,12.80
2008,11,01,12,36,12.90
2008,11,01,12,37,13.10
2008,11,01,12,38,13.20
2008,11,01,12,39,13.30
2008,11,01,12,40,13.30
2008,11,01,12,41,13.40
2008,11,01,12,42,13.40
2008,11,01,12,43,13.40
2008,11,01,12,44,13.40
2008,11,01,12,45,13.40
2008,11,01,12,46,13.40
2008,11,01,12,47,13.40
2008,11,01,12,48,13.40
2008,11,01,12,49,13.40
2008,11,01,12,50,13.40
2008,11,01,12,51,13.40
2008,11,01,12,52,13.40
2008,11,01,12,53,13.40
2008,11,01,12,54,13.30
2008,11,01,12,55,13.30
2008,11,01,12,56,13.30
2008,11,01,12,57,13.30
2008,11,01,12,58,13.30
2008,11,01,12,59,13.20
2008,11,01,13,00,13.20
2008,11,01,13,01,13.20
2008,11,01,13,02,13.20
2008,11,01,13,03,13.20
2008,11,01,13,04,13.30
2008,11,01,13,05,13.30
2008,11,01,13,06,13.30
2008,11,01,13,07,13.30
2008,11,01,13,08,13.30
2008,11,01,13,09,13.30
2008,11,01,13,10,13.30
2008,11,01,13,11,13.30
2008,11,01,13,12,13.30
2008,11,01,13,13,13.30
2008,11,01,13,14,13.30
2008,11,01,13,15,13.40
2008,11,01,13,16,13.40
2008,11,01,13,17,13.50
2008,11,01,13,18,13.60
2008,11,01,13,19,13.60
2008,11,01,13,20,13.70
2008,11,01,13,21,13.70
2008,11,01,13,22,13.80
2008,11,01,13,23,13.80
2008,11,01,13,24,13.80
2008,11,01,13,25,13.90
2008,11,01,13,26,13.90
2008,11,01,13,27,13.90
2008,11,01,13,28,13.90
2008,11,01,13,29,13.90
2008,11,01,13,30,13.90
2008,11,01,13,31,13.90
2008,11,01,13,32,13.90
2008,11,01,13,33,14.00
2008,11,01,13,34,14.00
2008,11,01,13,35,14.00
2008,11,01,13,36,14.00
2008,11,01,13,37,14.00
2008,11,01,13,38,14.10
2008,11,01,13,39,14.10
2008,11,01,13,40,14.10
2008,11,01,13,41,14.10
2008,11,01,13,42,14.10
2008,11,01,13,43,14.10
2008,11,01,13,44,14.10
2008,11,01,13,45,14.10
2008,11,01,13,46,14.10
2008,11,01,13,47,14.10
2008,11,01,13,48,14.20
2008,11,01,13,49,14.20
2008,11,01,13,50,14.30
2008,11,01,13,51,14.30
2008,11,01,13,52,14.40
2008,11,01,13,53,14.50
2008,11,01,13,54,14.50
2008,11,01,13,55,14.60
2008,11,01,13,56,14.70
2008,11,01,13,57,14.80
2008,11,01,13,58,14.80
2008,11,01,13,59,14.90
2008,11,01,14,00,15.00
2008,11,01,14,01,15.00
2008,11,01,14,02,15.00
2008,11,01,14,03,15.10
2008,11,01,14,04,15.10
2008,11,01,14,05,15.10
2008,11,01,14,06,15.20
2008,11,01,14,07,15.10
2008,11,01,14,08,15.10
2008,11,01,14,09,15.10
2008,11,01,14,10,15.10
2008,11,01,14,11,15.10
2008,11,01,14,12,15.10
2008,11,01,14,13,15.10
2008,11,01,14,14,15.10
2008,11,01,14,15,15.10
2008,11,01,14,16,15.10
2008,11,01,14,17,15.10
2008,11,01,14,18,15.10
2008,11,01,14,19,15.20
2008,11,01,14,20,15.20
2008,11,01,14,21,15.20
2008,11,01,14,22,15.20
2008,11,01,14,23,15.20
2008,11,01,14,24,15.10
2008,11,01,14,25,15.10
2008,11,01,14,26,15.00
2008,11,01,14,27,15.00
2008,11,01,14,28,15.00
2008,11,01,14,29,14.90
2008,11,01,14,30,14.80
2008,11,01,14,31,14.60
2008,11,01,14,32,14.50
2008,11,01,14,33,14.40
2008,11,01,14,34,14.40
2008,11,01,14,35,14.30
2008,11,01,14,36,14.30
2008,11,01,14,37,14.20
2008,11,01,14,38,14.20
2008,11,01,14,39,14.10
2008,11,01,14,40,14.10
2008,11,01,14,41,14.10
2008,11,01,14,42,14.10
2008,11,01,14,43,14.10
2008,11,01,14,44,14.10
2008,11,01,14,45,14.10
2008,11,01,14,46,14.10
2008,11,01,14,47,14.10
2008,11,01,14,48,14.10
2008,11,01,14,49,14.10
2008,11,01,14,50,14.10
2008,11,01,14,51,14.00
2008,11,01,14,52,14.00
2008,11,01,14,53,14.00
2008,11,01,14,54,13.90
2008,11,01,14,55,13.90
2008,11,01,14,56,13.90
2008,11,01,14,57,13.80
2008,11,01,14,58,13.70
2008,11,01,14,59,13.70
2008,11,01,15,00,13.60
2008,11,01,15,01,13.50
2008,11,01,15,02,13.40
2008,11,01,15,03,13.40
2008,11,01,15,04,13.30
2008,11,01,15,05,13.30
2008,11,01,15,06,13.20
2008,11,01,15,07,13.20
2008,11,01,15,08,13.10
2008,11,01,15,09,13.10
2008,11,01,15,10,13.10
2008,11,01,15,11,13.00
2008,11,01,15,12,13.00
2008,11,01,15,13,12.90
2008,11,01,15,14,12.90
2008,11,01,15,15,12.90
2008,11,01,15,16,12.90
2008,11,01,15,17,12.80
2008,11,01,15,18,12.80
2008,11,01,15,19,12.80
2008,11,01,15,20,12.80
2008,11,01,15,21,12.80
2008,11,01,15,22,12.90
2008,11,01,15,23,13.00
2008,11,01,15,24,13.10
2008,11,01,15,25,13.10
2008,11,01,15,26,13.10
2008,11,01,15,27,13.00
2008,11,01,15,28,12.90
2008,11,01,15,29,12.80
2008,11,01,15,30,12.80
2008,11,01,15,31,12.70
2008,11,01,15,32,12.70
2008,11,01,15,33,12.60
2008,11,01,15,34,12.60
2008,11,01,15,35,12.60
2008,11,01,15,36,12.60
2008,11,01,15,37,12.70
2008,11,01,15,38,12.70
2008,11,01,15,39,12.70
2008,11,01,15,40,12.70
2008,11,01,15,41,12.70
2008,11,01,15,42,12.70
2008,11,01,15,43,12.80
2008,11,01,15,44,12.80
2008,11,01,15,45,12.90
2008,11,01,15,46,13.00
2008,11,01,15,47,13.00
2008,11,01,15,48,13.10
2008,11,01,15,49,13.10
2008,11,01,15,50,13.10
2008,11,01,15,51,13.10
2008,11,01,15,52,13.10
2008,11,01,15,53,13.10
2008,11,01,15,54,13.10
2008,11,01,15,55,13.10
2008,11,01,15,56,13.10
2008,11,01,15,57,13.10
2008,11,01,15,58,13.10
2008,11,01,15,59,13.20
2008,11,01,16,00,13.20
2008,11,01,16,01,13.20
2008,11,01,16,02,13.20
2008,11,01,16,03,13.30
2008,11,01,16,04,13.30
2008,11,01,16,05,13.30
2008,11,01,16,06,13.40
2008,11,01,16,07,13.40
2008,11,01,16,08,13.40
2008,11,01,16,09,13.30
2008,11,01,16,10,13.30
2008,11,01,16,11,13.30
2008,11,01,16,12,13.30
2008,11,01,16,13,13.40
2008,11,01,16,14,13.50
2008,11,01,16,15,13.50
2008,11,01,16,16,13.70
2008,11,01,16,17,13.80
2008,11,01,16,18,13.90
2008,11,01,16,19,13.90
2008,11,01,16,20,13.80
2008,11,01,16,21,13.70
2008,11,01,16,22,14.00
2008,11,01,16,23,14.10
2008,11,01,16,24,14.20
2008,11,01,16,25,14.10
2008,11,01,16,26,14.00
2008,11,01,16,27,14.00
2008,11,01,16,28,14.00
2008,11,01,16,29,14.10
2008,11,01,16,30,14.00
2008,11,01,16,31,13.90
2008,11,01,16,32,13.70
2008,11,01,16,33,13.70
2008,11,01,16,34,13.80
2008,11,01,16,35,13.80
2008,11,01,16,36,13.80
2008,11,01,16,37,13.60
2008,11,01,16,38,13.50
2008,11,01,16,39,13.70
2008,11,01,16,40,13.70
2008,11,01,16,41,13.60
2008,11,01,16,42,13.90
2008,11,01,16,43,14.10
2008,11,01,16,44,14.20
2008,11,01,16,45,14.10
2008,11,01,16,46,13.90
2008,11,01,16,47,13.80
2008,11,01,16,48,13.80
2008,11,01,16,49,13.70
2008,11,01,16,50,13.60
2008,11,01,16,51,13.50
2008,11,01,16,52,13.40
2008,11,01,16,53,13.30
2008,11,01,16,54,13.30
2008,11,01,16,55,13.20
2008,11,01,16,56,13.10
2008,11,01,16,57,13.00
2008,11,01,16,58,12.90
2008,11,01,16,59,13.00
2008,11,01,17,00,13.00
2008,11,01,17,01,13.10
2008,11,01,17,02,13.30
2008,11,01,17,03,13.40
2008,11,01,17,04,13.50
2008,11,01,17,05,13.50
2008,11,01,17,06,13.50
2008,11,01,17,07,13.50
2008,11,01,17,08,13.40
2008,11,01,17,09,13.40
2008,11,01,17,10,13.40
2008,11,01,17,11,13.30
2008,11,01,17,12,13.30
2008,11,01,17,13,13.30
2008,11,01,17,14,13.20
2008,11,01,17,15,13.20
2008,11,01,17,16,13.20
2008,11,01,17,17,13.10
2008,11,01,17,18,13.00
2008,11,01,17,19,13.00
2008,11,01,17,20,12.90
2008,11,01,17,21,12.90
2008,11,01,17,22,12.80
2008,11,01,17,23,12.80
2008,11,01,17,24,12.80
2008,11,01,17,25,12.80
2008,11,01,17,26,12.80
2008,11,01,17,27,12.80
2008,11,01,17,28,12.80
2008,11,01,17,29,12.80
2008,11,01,17,30,12.80
2008,11,01,17,31,12.80
2008,11,01,17,32,12.80
2008,11,01,17,33,12.90
2008,11,01,17,34,12.90
2008,11,01,17,35,12.90
2008,11,01,17,36,13.00
2008,11,01,17,37,13.00
2008,11,01,17,38,13.00
2008,11,01,17,39,13.10
2008,11,01,17,40,13.00
2008,11,01,17,41,13.00
2008,11,01,17,42,13.00
2008,11,01,17,43,13.00
2008,11,01,17,44,13.00
2008,11,01,17,45,13.00
2008,11,01,17,46,13.00
2008,11,01,17,47,13.00
2008,11,01,17,48,13.10
2008,11,01,17,49,13.10
2008,11,01,17,50,13.20
2008,11,01,17,51,13.20
2008,11,01,17,52,13.20
2008,11,01,17,53,13.20
2008,11,01,17,54,13.20
2008,11,01,17,55,13.20
2008,11,01,17,56,13.20
2008,11,01,17,57,13.20
2008,11,01,17,58,13.30
2008,11,01,17,59,13.30
2008,11,01,18,00,13.40
2008,11,01,18,01,13.40
2008,11,01,18,02,13.40
2008,11,01,18,03,13.50
2008,11,01,18,04,13.50
2008,11,01,18,05,13.50
2008,11,01,18,06,13.50
2008,11,01,18,07,13.40
2008,11,01,18,08,13.30
2008,11,01,18,09,13.20
2008,11,01,18,10,13.20
2008,11,01,18,11,13.10
2008,11,01,18,12,13.10
2008,11,01,18,13,13.00
2008,11,01,18,14,13.00
2008,11,01,18,15,12.90
2008,11,01,18,16,12.90
2008,11,01,18,17,12.80
2008,11,01,18,18,12.80
2008,11,01,18,19,12.80
2008,11,01,18,20,12.90
2008,11,01,18,21,12.90
2008,11,01,18,22,13.00
2008,11,01,18,23,13.10
2008,11,01,18,24,13.10
2008,11,01,18,25,13.20
2008,11,01,18,26,13.20
2008,11,01,18,27,13.20
2008,11,01,18,28,13.20
2008,11,01,18,29,13.30
2008,11,01,18,30,13.30
2008,11,01,18,31,13.30
2008,11,01,18,32,13.30
2008,11,01,18,33,13.20
2008,11,01,18,34,13.20
2008,11,01,18,35,13.20
2008,11,01,18,36,13.10
2008,11,01,18,37,13.00
2008,11,01,18,38,12.80
2008,11,01,18,39,12.70
2008,11,01,18,40,12.60
2008,11,01,18,41,12.60
2008,11,01,18,42,12.50
2008,11,01,18,43,12.50
2008,11,01,18,44,12.40
2008,11,01,18,45,12.40
2008,11,01,18,46,12.50
2008,11,01,18,47,12.60
2008,11,01,18,48,12.60
2008,11,01,18,49,12.60
2008,11,01,18,50,12.60
2008,11,01,18,51,12.60
2008,11,01,18,52,12.50
2008,11,01,18,53,12.40
2008,11,01,18,54,12.30
2008,11,01,18,55,12.30
2008,11,01,18,56,12.20
2008,11,01,18,57,12.20
2008,11,01,18,58,12.20
2008,11,01,18,59,12.10